QPF
0.01 0.01 0.00 0.01 0.01 0.01 0.01 0.02 0.01 0.02 0.03 0.02 0.02 0.03 0.02 0.01 0.02 0.02 0.02 0.02 0.04 0.03 0.03 0.05 0.06 0.06 0.05 0.04 0.04 0.05 0.05 0.04 0.04 0.04 0.03 0.03 0.04 0.05 0.05 0.05 0.05 0.05 0.04
0.01 0.00 0.01 0.02 0.02 0.02 0.02 0.02 0.03 0.03 0.03 0.03 0.04 0.02 0.02 0.02 0.02 0.03 0.03 0.02 0.04 0.03 0.03 0.04 0.04 0.06 0.06 0.06 0.06 0.05 0.05 0.04 0.03 0.03 0.03 0.02 0.02 0.02 0.03 0.04 0.04 0.05 0.05
0.01 0.01 0.02 0.02 0.02 0.02 0.02 0.03 0.03 0.02 0.02 0.02 0.04 0.03 0.03 0.04 0.03 0.04 0.03 0.02 0.02 0.03 0.05 0.05 0.05 0.05 0.05 0.06 0.06 0.05 0.05 0.04 0.04 0.04 0.04 0.02 0.01 0.02 0.02 0.03 0.03 0.03 0.04
0.03 0.02 0.02 0.02 0.02 0.03 0.02 0.02 0.01 0.01 0.02 0.02 0.02 0.02 0.02 0.02 0.03 0.04 0.03 0.02 0.02 0.02 0.03 0.06 0.07 0.05 0.04 0.06 0.06 0.05 0.05 0.04 0.04 0.05 0.04 0.03 0.02 0.02 0.02 0.02 0.02 0.02 0.02
0.04 0.04 0.03 0.03 0.03 0.04 0.03 0.02 0.02 0.02 0.02 0.02 0.02 0.02 0.02 0.02 0.01 0.02 0.02 0.03 0.04 0.03 0.02 0.04 0.06 0.06 0.07 0.08 0.10 0.08 0.08 0.08 0.08 0.08 0.07 0.06 0.05 0.03 0.02 0.01 0.02 0.02 0.02
0.06 0.06 0.05 0.04 0.04 0.05 0.05 0.04 0.04 0.05 0.03 0.02 0.03 0.02 0.02 0.01 0.01 0.01 0.01 0.02 0.04 0.05 0.05 0.04 0.04 0.06 0.08 0.12 0.13 0.13 0.12 0.10 0.10 0.09 0.08 0.07 0.06 0.05 0.04 0.03 0.03 0.03 0.03
0.05 0.07 0.07 0.05 0.04 0.04 0.04 0.04 0.03 0.03 0.03 0.03 0.02 0.02 0.01 0.01 0.01 0.01 0.01 0.01 0.02 0.03 0.03 0.03 0.04 0.06 0.06 0.06 0.08 0.12 0.12 0.11 0.11 0.10 0.09 0.08 0.07 0.06 0.05 0.05 0.04 0.04 0.04
0.04 0.06 0.08 0.07 0.05 0.04 0.04 0.04 0.04 0.04 0.03 0.03 0.03 0.03 0.04 0.02 0.01 0.01 0.01 0.01 0.02 0.02 0.03 0.03 0.03 0.04 0.04 0.04 0.04 0.05 0.06 0.08 0.11 0.12 0.11 0.10 0.10 0.09 0.07 0.06 0.05 0.05 0.04
0.02 0.03 0.05 0.05 0.05 0.05 0.04 0.05 0.05 0.04 0.03 0.03 0.03 0.04 0.05 0.03 0.01 0.01 0.00 0.01 0.01 0.01 0.02 0.03 0.03 0.03 0.03 0.03 0.03 0.03 0.05 0.05 0.07 0.08 0.09 0.10 0.09 0.08 0.08 0.06 0.06 0.06 0.07
0.02 0.02 0.03 0.04 0.04 0.04 0.03 0.03 0.02 0.03 0.03 0.02 0.02 0.03 0.04 0.03 0.03 0.01 0.01 0.01 0.01 0.01 0.02 0.03 0.04 0.04 0.03 0.03 0.03 0.03 0.03 0.03 0.04 0.05 0.07 0.08 0.08 0.07 0.07 0.07 0.07 0.07 0.07
0.01 0.02 0.02 0.03 0.03 0.04 0.04 0.04 0.03 0.04 0.04 0.04 0.03 0.04 0.04 0.04 0.03 0.02 0.01 0.01 0.01 0.01 0.01 0.01 0.02 0.02 0.02 0.02 0.02 0.02 0.02 0.02 0.03 0.04 0.05 0.06 0.06 0.05 0.06 0.06 0.06 0.06 0.07
0.01 0.02 0.01 0.02 0.03 0.04 0.04 0.04 0.04 0.04 0.04 0.04 0.03 0.03 0.04 0.05 0.04 0.03 0.02 0.01 0.01 0.01 0.01 0.01 0.01 0.01 0.02 0.02 0.01 0.01 0.02 0.03 0.04 0.02 0.03 0.04 0.05 0.06 0.05 0.05 0.04 0.04 0.04
0.02 0.01 0.02 0.03 0.04 0.05 0.05 0.06 0.07 0.06 0.05 0.04 0.03 0.02 0.02 0.03 0.03 0.03 0.03 0.02 0.01 0.01 0.00 0.01 0.01 0.01 0.01 0.01 0.01 0.02 0.01 0.03 0.03 0.02 0.03 0.03 0.04 0.04 0.04 0.04 0.03 0.03 0.03
0.02 0.02 0.02 0.03 0.05 0.06 0.06 0.07 0.07 0.07 0.07 0.06 0.05 0.03 0.03 0.04 0.04 0.03 0.02 0.03 0.02 0.01 0.00 0.00 0.01 0.01 0.01 0.02 0.02 0.01 0.01 0.02 0.01 0.01 0.01 0.02 0.02 0.02 0.02 0.02 0.01 0.01 0.01
0.03 0.04 0.04 0.05 0.05 0.07 0.08 0.08 0.08 0.08 0.07 0.06 0.04 0.03 0.04 0.04 0.04 0.03 0.03 0.03 0.03 0.02 0.01 0.01 0.00 0.01 0.01 0.01 0.02 0.01 0.01 0.01 0.01 0.01 0.01 0.01 0.01 0.02 0.01 0.01 0.01 0.01 0.01
0.05 0.06 0.07 0.09 0.11 0.11 0.13 0.12 0.11 0.08 0.05 0.04 0.04 0.03 0.02 0.02 0.03 0.04 0.04 0.04 0.03 0.03 0.01 0.01 0.01 0.01 0.01 0.01 0.01 0.02 0.02 0.02 0.02 0.01 0.01 0.01 0.01 0.01 0.01 0.01 0.01 0.01 0.01
0.10 0.10 0.10 0.11 0.10 0.09 0.12 0.12 0.07 0.05 0.03 0.03 0.03 0.02 0.02 0.02 0.02 0.04 0.04 0.04 0.04 0.03 0.02 0.01 0.01 0.01 0.01 0.01 0.02 0.02 0.02 0.01 0.01 0.02 0.02 0.02 0.01 0.01 0.01 0.01 0.01 0.01 0.01
0.08 0.06 0.05 0.06 0.07 0.10 0.12 0.07 0.04 0.02 0.02 0.02 0.02 0.02 0.02 0.02 0.01 0.02 0.03 0.04 0.04 0.05 0.03 0.02 0.01 0.01 0.01 0.02 0.03 0.03 0.02 0.02 0.01 0.02 0.02 0.02 0.02 0.02 0.02 0.01 0.01 0.01 0.01
0.06 0.04 0.03 0.04 0.05 0.06 0.04 0.02 0.02 0.02 0.01 0.01 0.01 0.01 0.01 0.02 0.02 0.03 0.03 0.04 0.04 0.05 0.04 0.02 0.01 0.02 0.02 0.02 0.02 0.02 0.02 0.02 0.01 0.01 0.01 0.02 0.02 0.02 0.02 0.02 0.01 0.01 0.01
0.04 0.03 0.03 0.02 0.02 0.02 0.02 0.02 0.02 0.01 0.01 0.01 0.02 0.02 0.01 0.02 0.03 0.03 0.03 0.04 0.04 0.04 0.05 0.04 0.02 0.02 0.02 0.02 0.01 0.02 0.02 0.02 0.02 0.02 0.02 0.02 0.02 0.02 0.02 0.02 0.01 0.01 0.01
0.03 0.03 0.03 0.02 0.02 0.02 0.02 0.02 0.02 0.01 0.02 0.02 0.02 0.02 0.01 0.03 0.03 0.03 0.03 0.03 0.04 0.03 0.03 0.03 0.03 0.03 0.02 0.03 0.02 0.02 0.02 0.02 0.02 0.02 0.02 0.02 0.02 0.02 0.02 0.02 0.02 0.02 0.02
0.04 0.04 0.03 0.03 0.04 0.03 0.02 0.02 0.03 0.03 0.03 0.03 0.02 0.03 0.03 0.03 0.03 0.04 0.04 0.05 0.04 0.03 0.03 0.03 0.03 0.02 0.03 0.04 0.04 0.04 0.03 0.02 0.02 0.02 0.02 0.02 0.02 0.01 0.01 0.02 0.03 0.03 0.03
0.08 0.07 0.06 0.06 0.05 0.06 0.06 0.06 0.05 0.05 0.05 0.04 0.04 0.04 0.04 0.04 0.06 0.05 0.06 0.06 0.04 0.03 0.03 0.03 0.02 0.01 0.02 0.03 0.04 0.04 0.04 0.03 0.03 0.04 0.03 0.01 0.01 0.01 0.01 0.01 0.02 0.03 0.03
0.10 0.10 0.09 0.09 0.10 0.10 0.09 0.09 0.09 0.09 0.08 0.08 0.08 0.06 0.06 0.05 0.06 0.06 0.06 0.04 0.02 0.02 0.03 0.03 0.02 0.02 0.03 0.04 0.05 0.05 0.06 0.05 0.05 0.04 0.03 0.02 0.01 0.01 0.01 0.01 0.01 0.02 0.02
0.09 0.11 0.10 0.09 0.10 0.11 0.12 0.12 0.13 0.11 0.10 0.09 0.09 0.07 0.06 0.05 0.06 0.07 0.06 0.04 0.03 0.02 0.03 0.03 0.03 0.04 0.04 0.06 0.06 0.06 0.06 0.07 0.06 0.04 0.03 0.03 0.02 0.01 0.01 0.01 0.02 0.02 0.02
0.06 0.07 0.07 0.09 0.12 0.14 0.15 0.16 0.15 0.12 0.10 0.07 0.06 0.06 0.06 0.05 0.04 0.05 0.04 0.03 0.02 0.02 0.03 0.03 0.03 0.04 0.05 0.06 0.07 0.06 0.06 0.06 0.07 0.05 0.04 0.03 0.03 0.03 0.02 0.02 0.02 0.03 0.03
MSLP
1014.28 1014.56 1014.76 1014.92 1015.06 1015.22 1015.43 1015.67 1015.96 1016.27 1016.56 1016.82 1017.02 1017.17 1017.25 1017.31 1017.35 1017.40 1017.48 1017.61 1017.77 1017.98 1018.19 1018.42 1018.63 1018.82 1018.99 1019.14 1019.27 1019.40 1019.53 1019.67 1019.82 1020.00 1020.18 1020.36 1020.53 1020.69 1020.83 1020.93 1021.01 1021.07 1021.11
1014.24 1014.51 1014.73 1014.91 1015.08 1015.27 1015.49 1015.75 1016.04 1016.35 1016.64 1016.90 1017.10 1017.24 1017.32 1017.36 1017.38 1017.40 1017.45 1017.54 1017.67 1017.85 1018.06 1018.27 1018.48 1018.67 1018.84 1018.98 1019.10 1019.21 1019.32 1019.45 1019.60 1019.76 1019.95 1020.15 1020.34 1020.51 1020.66 1020.77 1020.84 1020.88 1020.90
1014.07 1014.35 1014.60 1014.82 1015.04 1015.27 1015.53 1015.81 1016.11 1016.42 1016.70 1016.95 1017.15 1017.28 1017.35 1017.37 1017.37 1017.36 1017.37 1017.42 1017.52 1017.66 1017.83 1018.03 1018.23 1018.42 1018.58 1018.72 1018.84 1018.95 1019.05 1019.16 1019.30 1019.46 1019.65 1019.85 1020.04 1020.22 1020.37 1020.48 1020.55 1020.58 1020.59
1013.75 1014.05 1014.34 1014.62 1014.90 1015.19 1015.49 1015.80 1016.11 1016.41 1016.69 1016.93 1017.12 1017.24 1017.30 1017.32 1017.30 1017.26 1017.24 1017.24 1017.29 1017.38 1017.51 1017.68 1017.86 1018.04 1018.20 1018.35 1018.47 1018.58 1018.68 1018.79 1018.92 1019.07 1019.25 1019.43 1019.62 1019.80 1019.94 1020.05 1020.12 1020.14 1020.14
1013.28 1013.60 1013.93 1014.27 1014.62 1014.98 1015.32 1015.67 1015.99 1016.30 1016.57 1016.81 1016.99 1017.11 1017.18 1017.19 1017.16 1017.10 1017.05 1017.00 1017.00 1017.03 1017.11 1017.23 1017.38 1017.54 1017.71 1017.86 1017.99 1018.11 1018.22 1018.33 1018.45 1018.58 1018.74 1018.91 1019.08 1019.24 1019.37 1019.47 1019.54 1019.56 1019.56
1012.70 1013.02 1013.39 1013.79 1014.21 1014.62 1015.02 1015.39 1015.74 1016.06 1016.33 1016.56 1016.75 1016.89 1016.97 1016.99 1016.97 1016.91 1016.82 1016.74 1016.68 1016.65 1016.66 1016.73 1016.83 1016.97 1017.12 1017.27 1017.41 1017.54 1017.66 1017.77 1017.89 1018.02 1018.15 1018.30 1018.45 1018.58 1018.70 1018.79 1018.85 1018.87 1018.87
1012.04 1012.37 1012.76 1013.20 1013.67 1014.13 1014.57 1014.98 1015.35 1015.67 1015.96 1016.21 1016.41 1016.58 1016.70 1016.75 1016.75 1016.70 1016.61 1016.49 1016.37 1016.27 1016.22 1016.22 1016.26 1016.36 1016.48 1016.62 1016.77 1016.91 1017.04 1017.16 1017.28 1017.39 1017.52 1017.64 1017.77 1017.89 1017.99 1018.07 1018.12 1018.15 1018.15
1011.37 1011.69 1012.09 1012.55 1013.05 1013.54 1014.01 1014.44 1014.83 1015.17 1015.47 1015.75 1016.00 1016.21 1016.38 1016.49 1016.53 1016.50 1016.41 1016.27 1016.11 1015.95 1015.82 1015.74 1015.72 1015.76 1015.84 1015.96 1016.10 1016.24 1016.38 1016.51 1016.63 1016.75 1016.87 1016.99 1017.10 1017.21 1017.31 1017.38 1017.43 1017.46 1017.47
1010.74 1011.03 1011.42 1011.89 1012.39 1012.90 1013.38 1013.82 1014.21 1014.57 1014.90 1015.21 1015.51 1015.78 1016.02 1016.20 1016.30 1016.32 1016.25 1016.10 1015.91 1015.70 1015.50 1015.34 1015.24 1015.20 1015.23 1015.31 1015.43 1015.56 1015.70 1015.85 1015.98 1016.11 1016.24 1016.37 1016.49 1016.60 1016.70 1016.78 1016.84 1016.88 1016.90
1010.14 1010.42 1010.79 1011.25 1011.74 1012.24 1012.71 1013.14 1013.54 1013.90 1014.26 1014.61 1014.96 1015.30 1015.62 1015.88 1016.05 1016.13 1016.09 1015.96 1015.75 1015.49 1015.23 1015.00 1014.82 1014.71 1014.67 1014.70 1014.78 1014.89 1015.03 1015.17 1015.32 1015.48 1015.63 1015.78 1015.93 1016.07 1016.19 1016.29 1016.37 1016.42 1016.45
1009.57 1009.84 1010.21 1010.64 1011.11 1011.58 1012.04 1012.45 1012.84 1013.21 1013.58 1013.96 1014.36 1014.77 1015.15 1015.49 1015.74 1015.89 1015.90 1015.79 1015.59 1015.31 1015.01 1014.71 1014.46 1014.28 1014.16 1014.13 1014.15 1014.23 1014.35 1014.49 1014.66 1014.83 1015.02 1015.21 1015.40 1015.58 1015.74 1015.88 1015.98 1016.06 1016.11
1009.01 1009.29 1009.65 1010.07 1010.51 1010.96 1011.38 1011.77 1012.14 1012.50 1012.87 1013.28 1013.71 1014.17 1014.62 1015.03 1015.35 1015.56 1015.63 1015.57 1015.38 1015.11 1014.79 1014.45 1014.14 1013.88 1013.70 1013.59 1013.55 1013.58 1013.66 1013.79 1013.96 1014.16 1014.38 1014.61 1014.85 1015.08 1015.30 1015.48 1015.62 1015.73 1015.80
1008.42 1008.72 1009.09 1009.50 1009.93 1010.35 1010.74 1011.10 1011.45 1011.80 1012.17 1012.58 1013.03 1013.52 1014.01 1014.47 1014.85 1015.12 1015.25 1015.25 1015.10 1014.86 1014.53 1014.18 1013.83 1013.52 1013.27 1013.09 1012.98 1012.95 1012.98 1013.08 1013.24 1013.45 1013.69 1013.97 1014.25 1014.54 1014.80 1015.03 1015.22 1015.36 1015.45
1007.78 1008.12 1008.52 1008.93 1009.35 1009.75 1010.12 1010.46 1010.79 1011.11 1011.47 1011.88 1012.33 1012.82 1013.33 1013.82 1014.25 1014.57 1014.76 1014.81 1014.73 1014.52 1014.23 1013.88 1013.52 1013.18 1012.88 1012.63 1012.46 1012.36 1012.34 1012.39 1012.52 1012.72 1012.98 1013.27 1013.59 1013.91 1014.21 1014.49 1014.71 1014.88 1015.01
1007.09 1007.48 1007.90 1008.34 1008.76 1009.15 1009.51 1009.84 1010.14 1010.45 1010.79 1011.18 1011.62 1012.10 1012.61 1013.11 1013.56 1013.92 1014.16 1014.27 1014.25 1014.10 1013.86 1013.55 1013.21 1012.86 1012.52 1012.23 1012.00 1011.84 1011.76 1011.76 1011.85 1012.02 1012.26 1012.56 1012.88 1013.22 1013.55 1013.85 1014.10 1014.30 1014.44
1006.37 1006.80 1007.25 1007.70 1008.13 1008.53 1008.88 1009.21 1009.50 1009.80 1010.13 1010.49 1010.90 1011.36 1011.85 1012.34 1012.80 1013.18 1013.47 1013.64 1013.68 1013.61 1013.44 1013.19 1012.88 1012.55 1012.22 1011.91 1011.64 1011.43 1011.30 1011.25 1011.29 1011.42 1011.63 1011.90 1012.21 1012.53 1012.86 1013.15 1013.41 1013.62 1013.79
1005.65 1006.09 1006.55 1007.01 1007.45 1007.85 1008.22 1008.54 1008.84 1009.14 1009.45 1009.79 1010.18 1010.61 1011.07 1011.54 1011.99 1012.38 1012.70 1012.92 1013.04 1013.04 1012.95 1012.77 1012.53 1012.25 1011.95 1011.65 1011.38 1011.15 1010.99 1010.90 1010.90 1010.98 1011.14 1011.36 1011.63 1011.92 1012.21 1012.48 1012.73 1012.93 1013.10
1004.97 1005.39 1005.83 1006.28 1006.71 1007.12 1007.49 1007.82 1008.13 1008.42 1008.72 1009.04 1009.40 1009.81 1010.24 1010.68 1011.12 1011.52 1011.87 1012.13 1012.31 1012.39 1012.38 1012.29 1012.13 1011.92 1011.68 1011.43 1011.18 1010.97 1010.81 1010.71 1010.68 1010.73 1010.84 1011.01 1011.22 1011.46 1011.70 1011.93 1012.13 1012.32 1012.48
1004.35 1004.71 1005.10 1005.52 1005.93 1006.33 1006.69 1007.02 1007.33 1007.61 1007.90 1008.21 1008.55 1008.93 1009.33 1009.76 1010.18 1010.58 1010.95 1011.25 1011.48 1011.64 1011.71 1011.71 1011.64 1011.53 1011.37 1011.19 1011.01 1010.85 1010.72 1010.64 1010.61 1010.65 1010.73 1010.86 1011.02 1011.19 1011.37 1011.54 1011.70 1011.85 1012.00
1003.82 1004.08 1004.41 1004.76 1005.13 1005.48 1005.82 1006.14 1006.42 1006.70 1006.98 1007.27 1007.59 1007.94 1008.32 1008.73 1009.14 1009.55 1009.93 1010.27 1010.55 1010.76 1010.91 1011.00 1011.03 1011.01 1010.95 1010.87 1010.79 1010.71 1010.65 1010.62 1010.63 1010.68 1010.76 1010.86 1010.98 1011.10 1011.22 1011.34 1011.45 1011.56 1011.69
1003.40 1003.55 1003.78 1004.05 1004.34 1004.64 1004.92 1005.19 1005.44 1005.68 1005.93 1006.20 1006.50 1006.83 1007.20 1007.59 1008.01 1008.42 1008.82 1009.18 1009.50 1009.77 1009.98 1010.15 1010.26 1010.34 1010.38 1010.41 1010.43 1010.46 1010.49 1010.55 1010.63 1010.72 1010.83 1010.94 1011.05 1011.14 1011.23 1011.30 1011.37 1011.44 1011.54
1003.11 1003.16 1003.27 1003.44 1003.64 1003.84 1004.05 1004.24 1004.42 1004.61 1004.81 1005.04 1005.30 1005.62 1005.97 1006.36 1006.78 1007.20 1007.62 1008.00 1008.36 1008.67 1008.93 1009.16 1009.34 1009.50 1009.64 1009.77 1009.90 1010.04 1010.18 1010.34 1010.51 1010.68 1010.85 1010.99 1011.12 1011.22 1011.29 1011.35 1011.39 1011.45 1011.54
1002.99 1002.93 1002.94 1002.99 1003.08 1003.17 1003.27 1003.35 1003.44 1003.54 1003.67 1003.84 1004.06 1004.35 1004.69 1005.08 1005.50 1005.94 1006.38 1006.79 1007.17 1007.51 1007.81 1008.08 1008.31 1008.53 1008.74 1008.96 1009.18 1009.42 1009.68 1009.94 1010.21 1010.47 1010.72 1010.93 1011.11 1011.25 1011.34 1011.41 1011.46 1011.52 1011.60
1003.06 1002.90 1002.81 1002.76 1002.73 1002.70 1002.66 1002.62 1002.58 1002.56 1002.60 1002.69 1002.86 1003.10 1003.43 1003.81 1004.24 1004.70 1005.16 1005.59 1006.00 1006.36 1006.69 1006.98 1007.24 1007.50 1007.76 1008.03 1008.32 1008.64 1008.98 1009.34 1009.71 1010.07 1010.40 1010.70 1010.95 1011.15 1011.30 1011.41 1011.50 1011.58 1011.67
1003.30 1003.09 1002.92 1002.77 1002.61 1002.45 1002.26 1002.07 1001.89 1001.75 1001.67 1001.67 1001.77 1001.97 1002.26 1002.64 1003.08 1003.55 1004.03 1004.49 1004.92 1005.30 1005.64 1005.95 1006.22 1006.50 1006.78 1007.08 1007.41 1007.78 1008.18 1008.61 1009.06 1009.50 1009.92 1010.31 1010.65 1010.93 1011.15 1011.33 1011.47 1011.58 1011.70
1003.70 1003.45 1003.22 1002.98 1002.71 1002.42 1002.09 1001.75 1001.43 1001.14 1000.94 1000.84 1000.86 1001.00 1001.27 1001.63 1002.07 1002.56 1003.06 1003.54 1003.99 1004.39 1004.74 1005.06 1005.34 1005.62 1005.90 1006.21 1006.56 1006.95 1007.38 1007.86 1008.35 1008.86 1009.35 1009.82 1010.24 1010.60 1010.91 1011.16 1011.36 1011.53 1011.68
Thickness
5750 5750 5749 5749 5750 5750 5750 5750 5749 5749 5748 5748 5748 5748 5748 5747 5747 5747 5746 5746 5746 5745 5744 5743 5742 5741 5740 5738 5737 5736 5734 5733 5731 5730 5729 5727 5726 5725 5723 5722 5721 5720 5719
5751 5750 5750 5749 5749 5749 5749 5749 5749 5749 5748 5748 5748 5748 5748 5748 5748 5747 5747 5747 5747 5746 5745 5744 5743 5742 5740 5739 5737 5736 5735 5733 5732 5730 5729 5728 5726 5725 5724 5723 5721 5721 5719
5752 5751 5750 5749 5750 5749 5749 5748 5748 5748 5747 5748 5748 5748 5748 5748 5748 5748 5748 5748 5747 5747 5746 5745 5744 5743 5741 5740 5739 5737 5735 5734 5733 5731 5730 5728 5727 5726 5724 5723 5722 5721 5720
5753 5752 5751 5750 5750 5749 5748 5748 5747 5746 5746 5746 5746 5747 5748 5748 5748 5748 5748 5748 5748 5747 5747 5746 5745 5744 5742 5741 5740 5738 5736 5735 5733 5732 5730 5729 5728 5726 5725 5724 5723 5722 5720
5754 5753 5752 5751 5750 5749 5748 5747 5746 5745 5744 5744 5744 5746 5747 5748 5748 5749 5748 5748 5748 5747 5747 5746 5745 5744 5743 5742 5741 5739 5738 5736 5735 5733 5731 5730 5729 5727 5726 5725 5724 5723 5721
5756 5754 5752 5751 5750 5749 5747 5746 5745 5744 5743 5743 5744 5745 5746 5747 5748 5748 5748 5748 5748 5747 5746 5746 5745 5745 5744 5743 5742 5741 5739 5738 5736 5735 5733 5732 5730 5729 5727 5726 5725 5723 5722
5757 5755 5754 5752 5751 5749 5747 5746 5744 5743 5742 5742 5740 5740 5743 5745 5746 5746 5747 5747 5747 5746 5745 5745 5744 5744 5743 5743 5742 5741 5740 5739 5738 5736 5735 5733 5732 5730 5729 5727 5726 5724 5723
5758 5757 5755 5753 5752 5749 5748 5746 5744 5742 5741 5741 5738 5734 5733 5736 5741 5745 5745 5745 5745 5745 5745 5744 5743 5743 5742 5742 5742 5741 5740 5739 5737 5737 5735 5734 5732 5731 5729 5728 5726 5725 5723
5759 5757 5756 5754 5752 5750 5748 5746 5744 5742 5739 5739 5739 5735 5729 5727 5732 5738 5741 5742 5742 5742 5743 5743 5742 5742 5741 5741 5740 5740 5739 5738 5737 5736 5735 5733 5732 5731 5730 5728 5727 5725 5724
5761 5759 5757 5755 5753 5751 5749 5747 5745 5743 5740 5737 5737 5737 5736 5733 5729 5729 5734 5737 5739 5739 5740 5741 5741 5741 5740 5739 5738 5738 5737 5736 5735 5734 5733 5732 5731 5729 5728 5726 5725 5724 5723
5762 5760 5758 5756 5753 5751 5749 5747 5745 5743 5741 5738 5736 5735 5734 5732 5731 5727 5726 5730 5733 5736 5737 5738 5738 5738 5738 5737 5737 5736 5735 5733 5732 5731 5730 5729 5729 5728 5726 5725 5724 5722 5721
5761 5760 5758 5756 5754 5752 5749 5747 5746 5744 5742 5740 5738 5736 5734 5731 5729 5727 5725 5725 5727 5731 5734 5735 5736 5736 5735 5735 5735 5734 5733 5732 5730 5729 5728 5727 5726 5725 5724 5723 5721 5720 5719
5760 5759 5758 5755 5753 5752 5750 5748 5745 5743 5742 5740 5738 5737 5736 5734 5733 5730 5726 5725 5724 5727 5730 5732 5733 5733 5733 5732 5732 5731 5730 5729 5728 5727 5726 5724 5723 5722 5721 5720 5718 5718 5717
5761 5760 5758 5756 5754 5752 5750 5747 5745 5743 5742 5740 5739 5737 5735 5735 5733 5731 5728 5724 5721 5722 5724 5727 5730 5730 5729 5729 5729 5728 5727 5727 5726 5725 5723 5722 5720 5719 5718 5716 5715 5714 5713
5762 5760 5758 5756 5753 5751 5749 5746 5744 5743 5741 5739 5738 5736 5735 5734 5733 5731 5729 5727 5721 5717 5719 5723 5724 5727 5726 5725 5725 5724 5724 5723 5723 5722 5720 5719 5717 5716 5714 5712 5711 5710 5709
5761 5759 5756 5754 5752 5750 5748 5745 5743 5742 5739 5738 5736 5735 5733 5732 5731 5729 5728 5726 5723 5720 5717 5721 5721 5722 5722 5722 5721 5721 5720 5719 5718 5717 5716 5715 5713 5712 5710 5709 5707 5706 5705
5759 5756 5755 5752 5750 5748 5746 5744 5742 5741 5738 5736 5735 5733 5731 5730 5728 5727 5725 5723 5721 5719 5716 5718 5718 5718 5717 5717 5717 5716 5716 5715 5714 5713 5712 5711 5709 5708 5707 5705 5703 5702 5700
5757 5755 5752 5750 5747 5745 5744 5742 5740 5739 5737 5734 5732 5730 5729 5728 5726 5724 5722 5721 5719 5718 5716 5714 5714 5714 5713 5713 5712 5712 5711 5711 5710 5709 5708 5707 5705 5704 5702 5701 5699 5697 5696
5753 5751 5749 5747 5744 5742 5741 5740 5738 5736 5735 5733 5730 5728 5726 5724 5722 5721 5719 5718 5717 5716 5714 5712 5711 5710 5709 5709 5708 5707 5706 5706 5705 5704 5703 5702 5701 5699 5698 5696 5694 5693 5691
5750 5748 5745 5744 5742 5741 5739 5737 5735 5733 5731 5729 5728 5726 5724 5722 5720 5718 5717 5715 5714 5712 5710 5708 5707 5706 5705 5705 5703 5702 5701 5700 5700 5699 5698 5697 5695 5694 5693 5691 5690 5688 5687
5746 5744 5742 5740 5738 5737 5735 5733 5731 5729 5726 5724 5723 5722 5721 5720 5718 5716 5715 5712 5710 5708 5706 5704 5703 5702 5701 5700 5699 5699 5696 5695 5694 5694 5692 5691 5690 5689 5687 5686 5685 5684 5682
5740 5738 5736 5735 5733 5733 5731 5729 5727 5724 5721 5719 5718 5717 5716 5715 5714 5712 5711 5710 5709 5705 5703 5701 5700 5699 5699 5698 5696 5694 5691 5689 5688 5689 5686 5686 5685 5684 5683 5682 5681 5679 5678
5732 5730 5730 5728 5727 5727 5726 5724 5721 5719 5716 5714 5713 5711 5711 5711 5709 5708 5706 5705 5704 5703 5702 5700 5698 5697 5697 5696 5693 5690 5688 5687 5686 5685 5681 5681 5680 5679 5679 5678 5677 5675 5673
5725 5724 5723 5722 5720 5720 5719 5718 5715 5711 5709 5708 5707 5706 5704 5704 5703 5701 5700 5698 5698 5698 5698 5696 5696 5695 5695 5693 5691 5689 5687 5683 5681 5679 5677 5675 5675 5675 5675 5674 5673 5671 5669
5718 5717 5716 5715 5713 5713 5712 5709 5706 5704 5703 5702 5701 5700 5699 5698 5696 5694 5692 5691 5691 5691 5692 5691 5690 5689 5689 5687 5685 5682 5679 5676 5675 5674 5672 5671 5670 5668 5668 5668 5667 5666 5664
5712 5711 5709 5708 5707 5705 5703 5701 5698 5696 5696 5695 5694 5693 5691 5691 5689 5687 5685 5684 5683 5684 5684 5683 5682 5682 5681 5681 5679 5677 5676 5672 5670 5669 5669 5666 5664 5661 5661 5663 5661 5660 5658